Starlink 30103

operational
NORAD ID: 56290 Int'l Des: 2023-056 Owner: SPXS Country: US Constellation: starlink
LEOCIRCULAR

About Starlink 30103

Description loading...

Live Position

Loading 3D Globe...

Upcoming Passes

Altitude History

Altitude vs Time

uPlot chart will show altitude changes over time

Two-Line Element Set

1 56290U 23056E 26035.02682778 -.00000288 00000-0 -62691-5 0 9993
2 56290 43.0046 32.9013 0001350 267.9384 92.1304 15.02533854154967
Epoch: Feb 4, 2026 • Age: 12 hours

Current Status

Altitude 569.4 km
Velocity 7.58 km/s
Sub-Earth Point -37.76°S, 2.78°E
Launch Date Apr 19, 2023
Age 2.7 years
Type internet

Technical Details

Classification Payload
Mass 730.00 kg
Dry Mass 700.00 kg
Total Mass 730.00 kg
Length 0.30 m
Diameter 4.10 m
Span 29.00 m
Shape Box + pan
Manufacturer SPXS
Bus Type Starlink V2M
Phase Status In Orbit
Owner/State SPXS/US

Large Constellations

Loading constellations...